Location: *
(37.5724°S, 58.0067°E)
Time: 01:32:30
(UTC+00:00)

X-37B - Pass Details

Date: 03 December 2020
Orbit: 385 x 390 km, 45.0° (Epoch: 20 January)

Event Time Altitude Azimuth Distance (km) Brightness Sun altitude
Exits shadow 23:51:05 11° 284° (WNW) 1,379 2.8 -8.9°
Maximum altitude 23:54:08 57° 205° (SSW) 473 1.1 -8.4°
Drops below altitude 10° 23:57:21 10° 124° (SE) 1,447 5.2 -7.9°
Sets 23:59:28 0° 120° (ESE) 2,308 6.9 -7.6°
